owner,sensor,date,latitude,longitude,vertical_datum,wind_speed,wind_to_direction,wind_speed_of_gust,qcFlag 
TCOON,ioos:station:TCOON:068:1,2008-01-01T00:00:00Z,27.2970,-97.4049,0.0,4.9,55.0,5.6,'11111222,11111222,11111222' 
TCOON,ioos:station:TCOON:068:1,2008-01-01T01:00:00Z,27.2970,-97.4049,0.0,4.3,45.0,5.0,'11111222,11111222,11111222' 
TCOON,ioos:station:TCOON:068:1,2008-01-01T03:00:00Z,27.2970,-97.4049,0.0,3.6,51.0,4.0,'11111222,11111222,11111222' 
TCOON,ioos:station:TCOON:068:1,2008-01-01T04:00:00Z,27.2970,-97.4049,0.0,9.5,356.0,11.3,'11111222,11111222,11111222' 
TCOON,ioos:station:TCOON:068:1,2008-01-01T05:00:00Z,27.2970,-97.4049,0.0,12.1,12.0,14.3,'11111222,11111222,11111222' 
TCOON,ioos:station:TCOON:068:1,2008-01-01T06:00:00Z,27.2970,-97.4049,0.0,12.2,6.0,14.9,'11111222,11111222,11111222' 
TCOON,ioos:station:TCOON:068:1,2008-01-01T07:00:00Z,27.2970,-97.4049,0.0,14.4,6.0,17.3,'11111222,11111222,11111222' 
TCOON,ioos:station:TCOON:068:1,2008-01-01T08:00:00Z,27.2970,-97.4049,0.0,13.7,6.0,16.1,'11111222,11111222,11111222' 
TCOON,ioos:station:TCOON:068:1,2008-01-01T09:00:00Z,27.2970,-97.4049,0.0,14.3,7.0,17.1,'11111222,11111222,11111222' 
TCOON,ioos:station:TCOON:068:1,2008-01-01T10:00:00Z,27.2970,-97.4049,0.0,14.2,8.0,17.4,'11111222,11111222,11111222' 
TCOON,ioos:station:TCOON:068:1,2008-01-01T11:00:00Z,27.2970,-97.4049,0.0,13.3,5.0,16.9,'11111222,11111222,11111222' 
TCOON,ioos:station:TCOON:068:1,2008-01-01T12:00:00Z,27.2970,-97.4049,0.0,15.2,6.0,18.4,'11111222,11111222,11111222' 
TCOON,ioos:station:TCOON:068:1,2008-01-01T13:00:00Z,27.2970,-97.4049,0.0,13.0,3.0,15.7,'11111222,11111222,11111222' 
TCOON,ioos:station:TCOON:068:1,2008-01-01T14:00:00Z,27.2970,-97.4049,0.0,13.7,2.0,17.9,'11111222,11111222,11111222' 
TCOON,ioos:station:TCOON:068:1,2008-01-01T15:00:00Z,27.2970,-97.4049,0.0,9.4,357.0,11.9,'11111222,11111222,11111222' 
TCOON,ioos:station:TCOON:068:1,2008-01-01T16:00:00Z,27.2970,-97.4049,0.0,11.6,4.0,13.3,'11111222,11111222,11111222' 
TCOON,ioos:station:TCOON:068:1,2008-01-01T17:00:00Z,27.2970,-97.4049,0.0,12.4,359.0,13.9,'11111222,11111222,11111222' 
TCOON,ioos:station:TCOON:068:1,2008-01-01T18:00:00Z,27.2970,-97.4049,0.0,8.8,360.0,10.9,'11111222,11144222,11111222' 
TCOON,ioos:station:TCOON:068:1,2008-01-01T19:00:00Z,27.2970,-97.4049,0.0,7.4,5.0,8.6,'11111222,11111222,11111222' 
TCOON,ioos:station:TCOON:068:1,2008-01-01T20:00:00Z,27.2970,-97.4049,0.0,8.0,11.0,10.2,'11111222,11111222,11111222' 
TCOON,ioos:station:TCOON:068:1,2008-01-01T21:00:00Z,27.2970,-97.4049,0.0,8.5,14.0,10.6,'11111222,11111222,11111222' 
TCOON,ioos:station:TCOON:068:1,2008-01-01T22:00:00Z,27.2970,-97.4049,0.0,7.2,14.0,33.4,'11111222,11111222,11111222' 
TCOON,ioos:station:TCOON:068:1,2008-01-01T23:00:00Z,27.2970,-97.4049,0.0,7.4,8.0,8.5,'11111222,11111222,11111222' 
TCOON,ioos:station:TCOON:068:1,2008-01-02T00:00:00Z,27.2970,-97.4049,0.0,4.9,7.0,5.9,'11111222,11111222,11111222' 
TCOON,ioos:station:TCOON:068:1,2008-01-02T01:00:00Z,27.2970,-97.4049,0.0,4.4,357.0,5.3,'11111222,11111222,11111222' 
TCOON,ioos:station:TCOON:068:1,2008-01-02T02:00:00Z,27.2970,-97.4049,0.0,5.6,4.0,7.2,'11111222,11111222,11111222' 
TCOON,ioos:station:TCOON:068:1,2008-01-02T03:00:00Z,27.2970,-97.4049,0.0,7.9,13.0,9.7,'11111222,11111222,11111222' 
TCOON,ioos:station:TCOON:068:1,2008-01-02T04:00:00Z,27.2970,-97.4049,0.0,7.5,12.0,9.1,'11111222,11111222,11111222' 
TCOON,ioos:station:TCOON:068:1,2008-01-02T05:00:00Z,27.2970,-97.4049,0.0,8.5,5.0,10.2,'11111222,11111222,11111222' 
TCOON,ioos:station:TCOON:068:1,2008-01-02T06:00:00Z,27.2970,-97.4049,0.0,9.0,10.0,10.7,'11111222,11111222,11111222' 
TCOON,ioos:station:TCOON:068:1,2008-01-02T07:00:00Z,27.2970,-97.4049,0.0,7.8,11.0,9.6,'11111222,11111222,11111222' 
TCOON,ioos:station:TCOON:068:1,2008-01-02T08:00:00Z,27.2970,-97.4049,0.0,8.5,5.0,10.6,'11111222,11111222,11111222' 
TCOON,ioos:station:TCOON:068:1,2008-01-02T09:00:00Z,27.2970,-97.4049,0.0,8.3,3.0,9.9,'11111222,11111222,11111222' 
TCOON,ioos:station:TCOON:068:1,2008-01-02T10:00:00Z,27.2970,-97.4049,0.0,7.6,353.0,9.1,'11111222,11111222,11111222' 
TCOON,ioos:station:TCOON:068:1,2008-01-02T11:00:00Z,27.2970,-97.4049,0.0,6.9,345.0,8.2,'11111222,11111222,11111222' 
TCOON,ioos:station:TCOON:068:1,2008-01-02T12:00:00Z,27.2970,-97.4049,0.0,6.2,343.0,7.2,'11111222,11111222,11111222' 
TCOON,ioos:station:TCOON:068:1,2008-01-02T13:00:00Z,27.2970,-97.4049,0.0,8.2,350.0,9.7,'11111222,11111222,11111222' 
TCOON,ioos:station:TCOON:068:1,2008-01-02T14:00:00Z,27.2970,-97.4049,0.0,10.2,4.0,12.7,'11111222,11111222,11111222' 
TCOON,ioos:station:TCOON:068:1,2008-01-02T15:00:00Z,27.2970,-97.4049,0.0,10.1,5.0,11.5,'11111222,11111222,11111222' 
TCOON,ioos:station:TCOON:068:1,2008-01-02T16:00:00Z,27.2970,-97.4049,0.0,9.9,1.0,11.7,'11111222,11111222,11111222' 
TCOON,ioos:station:TCOON:068:1,2008-01-02T17:00:00Z,27.2970,-97.4049,0.0,9.1,360.0,10.7,'11111222,11144222,11111222' 
TCOON,ioos:station:TCOON:068:1,2008-01-02T18:00:00Z,27.2970,-97.4049,0.0,9.0,1.0,10.4,'11111222,11111222,11111222' 
TCOON,ioos:station:TCOON:068:1,2008-01-02T19:00:00Z,27.2970,-97.4049,0.0,7.3,357.0,8.5,'11111222,11111222,11111222' 
TCOON,ioos:station:TCOON:068:1,2008-01-02T20:00:00Z,27.2970,-97.4049,0.0,6.6,360.0,7.6,'11111222,11144222,11111222' 
TCOON,ioos:station:TCOON:068:1,2008-01-02T21:00:00Z,27.2970,-97.4049,0.0,5.8,360.0,6.9,'11111222,11144222,11111222' 
TCOON,ioos:station:TCOON:068:1,2008-01-02T22:00:00Z,27.2970,-97.4049,0.0,5.4,11.0,6.9,'11111222,11111222,11111222' 
TCOON,ioos:station:TCOON:068:1,2008-01-02T23:00:00Z,27.2970,-97.4049,0.0,5.9,33.0,6.3,'11111222,11111222,11111222' 
TCOON,ioos:station:TCOON:068:1,2008-01-03T00:00:00Z,27.2970,-97.4049,0.0,4.8,24.0,5.9,'11111222,11111222,11111222' 
TCOON,ioos:station:TCOON:068:1,2008-01-03T01:00:00Z,27.2970,-97.4049,0.0,3.9,12.0,5.1,'11111222,11111222,11111222' 
TCOON,ioos:station:TCOON:068:1,2008-01-03T02:00:00Z,27.2970,-97.4049,0.0,4.3,12.0,5.1,'11111222,11111222,11111222' 
TCOON,ioos:station:TCOON:068:1,2008-01-03T03:00:00Z,27.2970,-97.4049,0.0,5.1,7.0,5.9,'11111222,11111222,11111222' 
TCOON,ioos:station:TCOON:068:1,2008-01-03T04:00:00Z,27.2970,-97.4049,0.0,5.1,7.0,5.9,'11111222,11111222,11111222' 
TCOON,ioos:station:TCOON:068:1,2008-01-03T05:00:00Z,27.2970,-97.4049,0.0,4.3,355.0,5.8,'11111222,11111222,11111222' 
TCOON,ioos:station:TCOON:068:1,2008-01-03T06:00:00Z,27.2970,-97.4049,0.0,5.0,349.0,5.7,'11111222,11111222,11111222' 
TCOON,ioos:station:TCOON:068:1,2008-01-03T07:00:00Z,27.2970,-97.4049,0.0,5.1,349.0,6.3,'11111222,11111222,11111222' 
TCOON,ioos:station:TCOON:068:1,2008-01-03T08:00:00Z,27.2970,-97.4049,0.0,6.7,353.0,7.7,'11111222,11111222,11111222' 
TCOON,ioos:station:TCOON:068:1,2008-01-03T09:00:00Z,27.2970,-97.4049,0.0,6.6,346.0,8.0,'11111222,11111222,11111222' 
TCOON,ioos:station:TCOON:068:1,2008-01-03T10:00:00Z,27.2970,-97.4049,0.0,6.9,348.0,8.1,'11111222,11111222,11111222' 
TCOON,ioos:station:TCOON:068:1,2008-01-03T11:00:00Z,27.2970,-97.4049,0.0,7.5,353.0,8.6,'11111222,11111222,11111222' 
TCOON,ioos:station:TCOON:068:1,2008-01-03T12:00:00Z,27.2970,-97.4049,0.0,6.6,353.0,7.4,'11111222,11111222,11111222' 
TCOON,ioos:station:TCOON:068:1,2008-01-03T13:00:00Z,27.2970,-97.4049,0.0,6.2,348.0,7.5,'11111222,11111222,11111222' 
TCOON,ioos:station:TCOON:068:1,2008-01-03T14:00:00Z,27.2970,-97.4049,0.0,6.4,358.0,7.2,'11111222,11111222,11111222' 
TCOON,ioos:station:TCOON:068:1,2008-01-03T15:00:00Z,27.2970,-97.4049,0.0,6.0,349.0,6.8,'11111222,11111222,11111222' 
TCOON,ioos:station:TCOON:068:1,2008-01-03T16:00:00Z,27.2970,-97.4049,0.0,8.8,359.0,10.0,'11111222,11111222,11111222' 
TCOON,ioos:station:TCOON:068:1,2008-01-03T17:00:00Z,27.2970,-97.4049,0.0,7.0,358.0,8.1,'11111222,11111222,11111222' 
TCOON,ioos:station:TCOON:068:1,2008-01-03T18:00:00Z,27.2970,-97.4049,0.0,5.4,12.0,6.6,'11111222,11111222,11111222' 
TCOON,ioos:station:TCOON:068:1,2008-01-03T19:00:00Z,27.2970,-97.4049,0.0,6.1,32.0,7.3,'11111222,11111222,11111222' 
TCOON,ioos:station:TCOON:068:1,2008-01-03T20:00:00Z,27.2970,-97.4049,0.0,5.6,41.0,6.8,'11111222,11111222,11111222' 
TCOON,ioos:station:TCOON:068:1,2008-01-03T21:00:00Z,27.2970,-97.4049,0.0,5.2,53.0,5.9,'11111222,11111222,11111222' 
TCOON,ioos:station:TCOON:068:1,2008-01-03T22:00:00Z,27.2970,-97.4049,0.0,6.0,103.0,7.7,'11111222,11111222,11111222' 
TCOON,ioos:station:TCOON:068:1,2008-01-03T23:00:00Z,27.2970,-97.4049,0.0,4.8,105.0,6.0,'11111222,11111222,11111222' 
TCOON,ioos:station:TCOON:068:1,2008-01-04T00:00:00Z,27.2970,-97.4049,0.0,3.2,117.0,3.6,'11111222,11111222,11111222' 
TCOON,ioos:station:TCOON:068:1,2008-01-04T01:00:00Z,27.2970,-97.4049,0.0,3.6,108.0,4.6,'11111222,11111222,11111222' 
TCOON,ioos:station:TCOON:068:1,2008-01-04T02:00:00Z,27.2970,-97.4049,0.0,4.0,105.0,4.4,'11111222,11111222,11111222' 
TCOON,ioos:station:TCOON:068:1,2008-01-04T03:00:00Z,27.2970,-97.4049,0.0,3.9,102.0,4.2,'11111222,11111222,11111222' 
TCOON,ioos:station:TCOON:068:1,2008-01-04T04:00:00Z,27.2970,-97.4049,0.0,4.2,120.0,5.1,'11111222,11111222,11111222' 
TCOON,ioos:station:TCOON:068:1,2008-01-04T05:00:00Z,27.2970,-97.4049,0.0,3.9,126.0,4.7,'11111222,11111222,11111222' 
TCOON,ioos:station:TCOON:068:1,2008-01-04T06:00:00Z,27.2970,-97.4049,0.0,4.1,133.0,4.6,'11111222,11111222,11111222' 
TCOON,ioos:station:TCOON:068:1,2008-01-04T07:00:00Z,27.2970,-97.4049,0.0,2.6,124.0,2.9,'11111222,11111222,11111222' 
TCOON,ioos:station:TCOON:068:1,2008-01-04T08:00:00Z,27.2970,-97.4049,0.0,2.3,122.0,2.5,'11111222,11111222,11111222' 
TCOON,ioos:station:TCOON:068:1,2008-01-04T09:00:00Z,27.2970,-97.4049,0.0,1.5,153.0,1.9,'11111222,11111222,11111222' 
TCOON,ioos:station:TCOON:068:1,2008-01-04T10:00:00Z,27.2970,-97.4049,0.0,0.2,124.0,0.3,'11111222,11111222,11111222' 
TCOON,ioos:station:TCOON:068:1,2008-01-04T11:00:00Z,27.2970,-97.4049,0.0,1.1,73.0,1.2,'11111222,11111222,11111222' 
TCOON,ioos:station:TCOON:068:1,2008-01-04T12:00:00Z,27.2970,-97.4049,0.0,1.5,57.0,1.7,'11111222,11111222,11111222' 
TCOON,ioos:station:TCOON:068:1,2008-01-04T13:00:00Z,27.2970,-97.4049,0.0,1.8,104.0,2.0,'11111222,11111222,11111222' 
TCOON,ioos:station:TCOON:068:1,2008-01-04T14:00:00Z,27.2970,-97.4049,0.0,1.8,75.0,2.0,'11111222,11111222,11111222' 
TCOON,ioos:station:TCOON:068:1,2008-01-04T15:00:00Z,27.2970,-97.4049,0.0,1.9,116.0,2.7,'11111222,11111222,11111222' 
TCOON,ioos:station:TCOON:068:1,2008-01-04T16:00:00Z,27.2970,-97.4049,0.0,4.8,126.0,6.1,'11111222,11111222,11111222' 
TCOON,ioos:station:TCOON:068:1,2008-01-04T17:00:00Z,27.2970,-97.4049,0.0,5.8,129.0,7.5,'11111222,11111222,11111222' 
TCOON,ioos:station:TCOON:068:1,2008-01-04T18:00:00Z,27.2970,-97.4049,0.0,7.3,121.0,8.6,'11111222,11111222,11111222' 
TCOON,ioos:station:TCOON:068:1,2008-01-04T19:00:00Z,27.2970,-97.4049,0.0,8.3,124.0,9.7,'11111222,11111222,11111222' 
TCOON,ioos:station:TCOON:068:1,2008-01-04T20:00:00Z,27.2970,-97.4049,0.0,8.4,123.0,10.1,'11111222,11111222,11111222' 
TCOON,ioos:station:TCOON:068:1,2008-01-04T21:00:00Z,27.2970,-97.4049,0.0,6.6,124.0,8.5,'11111222,11111222,11111222' 
TCOON,ioos:station:TCOON:068:1,2008-01-04T22:00:00Z,27.2970,-97.4049,0.0,5.9,126.0,7.3,'11111222,11111222,11111222' 
TCOON,ioos:station:TCOON:068:1,2008-01-04T23:00:00Z,27.2970,-97.4049,0.0,6.8,120.0,8.7,'11111222,11111222,11111222' 
TCOON,ioos:station:TCOON:068:1,2008-01-05T00:00:00Z,27.2970,-97.4049,0.0,5.4,131.0,6.3,'11111222,11111222,11111222' 
TCOON,ioos:station:TCOON:068:1,2008-01-05T01:00:00Z,27.2970,-97.4049,0.0,5.0,122.0,6.0,'11111222,11111222,11111222' 
TCOON,ioos:station:TCOON:068:1,2008-01-05T02:00:00Z,27.2970,-97.4049,0.0,4.2,114.0,5.0,'11111222,11111222,11111222' 
TCOON,ioos:station:TCOON:068:1,2008-01-05T03:00:00Z,27.2970,-97.4049,0.0,4.8,138.0,5.7,'11111222,11111222,11111222' 
TCOON,ioos:station:TCOON:068:1,2008-01-05T04:00:00Z,27.2970,-97.4049,0.0,4.0,123.0,4.6,'11111222,11111222,11111222' 
TCOON,ioos:station:TCOON:068:1,2008-01-05T05:00:00Z,27.2970,-97.4049,0.0,4.7,145.0,5.5,'11111222,11111222,11111222' 
TCOON,ioos:station:TCOON:068:1,2008-01-05T06:00:00Z,27.2970,-97.4049,0.0,5.1,162.0,6.2,'11111222,11111222,11111222' 
TCOON,ioos:station:TCOON:068:1,2008-01-05T07:00:00Z,27.2970,-97.4049,0.0,5.3,161.0,6.2,'11111222,11111222,11111222' 
TCOON,ioos:station:TCOON:068:1,2008-01-05T08:00:00Z,27.2970,-97.4049,0.0,4.5,151.0,5.0,'11111222,11111222,11111222' 
TCOON,ioos:station:TCOON:068:1,2008-01-05T09:00:00Z,27.2970,-97.4049,0.0,3.2,151.0,3.5,'11111222,11111222,11111222' 
TCOON,ioos:station:TCOON:068:1,2008-01-05T10:00:00Z,27.2970,-97.4049,0.0,4.6,122.0,5.3,'11111222,11111222,11111222' 
TCOON,ioos:station:TCOON:068:1,2008-01-05T11:00:00Z,27.2970,-97.4049,0.0,4.8,126.0,5.9,'11111222,11111222,11111222' 
TCOON,ioos:station:TCOON:068:1,2008-01-05T12:00:00Z,27.2970,-97.4049,0.0,4.6,141.0,5.4,'11111222,11111222,11111222' 
TCOON,ioos:station:TCOON:068:1,2008-01-05T13:00:00Z,27.2970,-97.4049,0.0,2.4,187.0,2.5,'11111222,11111222,11111222' 
TCOON,ioos:station:TCOON:068:1,2008-01-05T14:00:00Z,27.2970,-97.4049,0.0,3.6,142.0,4.0,'11111222,11111222,11111222' 
TCOON,ioos:station:TCOON:068:1,2008-01-05T15:00:00Z,27.2970,-97.4049,0.0,5.3,164.0,6.3,'11111222,11111222,11111222' 
TCOON,ioos:station:TCOON:068:1,2008-01-05T16:00:00Z,27.2970,-97.4049,0.0,4.4,159.0,5.1,'11111222,11111222,11111222' 
TCOON,ioos:station:TCOON:068:1,2008-01-05T17:00:00Z,27.2970,-97.4049,0.0,3.5,175.0,3.9,'11111222,11111222,11111222' 
TCOON,ioos:station:TCOON:068:1,2008-01-05T18:00:00Z,27.2970,-97.4049,0.0,4.4,168.0,5.4,'11111222,11111222,11111222' 
TCOON,ioos:station:TCOON:068:1,2008-01-05T19:00:00Z,27.2970,-97.4049,0.0,5.9,135.0,7.7,'11111222,11111222,11111222' 
TCOON,ioos:station:TCOON:068:1,2008-01-05T20:00:00Z,27.2970,-97.4049,0.0,6.5,138.0,8.6,'11111222,11111222,11111222' 
TCOON,ioos:station:TCOON:068:1,2008-01-05T21:00:00Z,27.2970,-97.4049,0.0,8.5,129.0,10.8,'11111222,11111222,11111222' 
TCOON,ioos:station:TCOON:068:1,2008-01-05T22:00:00Z,27.2970,-97.4049,0.0,8.8,136.0,11.2,'11111222,11111222,11111222' 
TCOON,ioos:station:TCOON:068:1,2008-01-05T23:00:00Z,27.2970,-97.4049,0.0,9.0,132.0,10.3,'11111222,11111222,11111222' 
TCOON,ioos:station:TCOON:068:1,2008-01-06T00:00:00Z,27.2970,-97.4049,0.0,8.0,137.0,9.8,'11111222,11111222,11111222' 
TCOON,ioos:station:TCOON:068:1,2008-01-06T01:00:00Z,27.2970,-97.4049,0.0,7.7,144.0,9.1,'11111222,11111222,11111222' 
TCOON,ioos:station:TCOON:068:1,2008-01-06T02:00:00Z,27.2970,-97.4049,0.0,6.6,139.0,8.1,'11111222,11111222,11111222' 
TCOON,ioos:station:TCOON:068:1,2008-01-06T03:00:00Z,27.2970,-97.4049,0.0,5.7,135.0,6.8,'11111222,11111222,11111222' 
TCOON,ioos:station:TCOON:068:1,2008-01-06T04:00:00Z,27.2970,-97.4049,0.0,6.5,140.0,8.0,'11111222,11111222,11111222' 
TCOON,ioos:station:TCOON:068:1,2008-01-06T05:00:00Z,27.2970,-97.4049,0.0,6.4,138.0,8.2,'11111222,11111222,11111222' 
TCOON,ioos:station:TCOON:068:1,2008-01-06T06:00:00Z,27.2970,-97.4049,0.0,6.1,137.0,7.4,'11111222,11111222,11111222' 
TCOON,ioos:station:TCOON:068:1,2008-01-06T07:00:00Z,27.2970,-97.4049,0.0,6.2,142.0,7.3,'11111222,11111222,11111222' 
TCOON,ioos:station:TCOON:068:1,2008-01-06T08:00:00Z,27.2970,-97.4049,0.0,6.0,151.0,6.8,'11111222,11111222,11111222' 
TCOON,ioos:station:TCOON:068:1,2008-01-06T09:00:00Z,27.2970,-97.4049,0.0,4.8,161.0,5.6,'11111222,11111222,11111222' 
TCOON,ioos:station:TCOON:068:1,2008-01-06T10:00:00Z,27.2970,-97.4049,0.0,4.6,122.0,5.3,'11111222,11111222,11111222' 
TCOON,ioos:station:TCOON:068:1,2008-01-06T11:00:00Z,27.2970,-97.4049,0.0,4.5,134.0,5.4,'11111222,11111222,11111222' 
TCOON,ioos:station:TCOON:068:1,2008-01-06T12:00:00Z,27.2970,-97.4049,0.0,5.8,143.0,7.2,'11111222,11111222,11111222' 
TCOON,ioos:station:TCOON:068:1,2008-01-06T13:00:00Z,27.2970,-97.4049,0.0,6.1,140.0,7.1,'11111222,11111222,11111222' 
TCOON,ioos:station:TCOON:068:1,2008-01-06T14:00:00Z,27.2970,-97.4049,0.0,4.7,150.0,5.2,'11111222,11111222,11111222' 
TCOON,ioos:station:TCOON:068:1,2008-01-06T15:00:00Z,27.2970,-97.4049,0.0,6.6,141.0,7.8,'11111222,11111222,11111222' 
TCOON,ioos:station:TCOON:068:1,2008-01-06T16:00:00Z,27.2970,-97.4049,0.0,6.2,146.0,7.6,'11111222,11111222,11111222' 
TCOON,ioos:station:TCOON:068:1,2008-01-06T17:00:00Z,27.2970,-97.4049,0.0,6.2,146.0,8.0,'11111222,11111222,11111222' 
TCOON,ioos:station:TCOON:068:1,2008-01-06T18:00:00Z,27.2970,-97.4049,0.0,6.0,142.0,7.2,'11111222,11111222,11111222' 
TCOON,ioos:station:TCOON:068:1,2008-01-06T19:00:00Z,27.2970,-97.4049,0.0,8.1,132.0,10.2,'11111222,11111222,11111222' 
TCOON,ioos:station:TCOON:068:1,2008-01-06T20:00:00Z,27.2970,-97.4049,0.0,9.0,129.0,11.5,'11111222,11111222,11111222' 
TCOON,ioos:station:TCOON:068:1,2008-01-06T21:00:00Z,27.2970,-97.4049,0.0,8.4,130.0,10.7,'11111222,11111222,11111222' 
TCOON,ioos:station:TCOON:068:1,2008-01-06T22:00:00Z,27.2970,-97.4049,0.0,9.1,131.0,11.3,'11111222,11111222,11111222' 
TCOON,ioos:station:TCOON:068:1,2008-01-06T23:00:00Z,27.2970,-97.4049,0.0,8.2,133.0,10.1,'11111222,11111222,11111222' 
TCOON,ioos:station:TCOON:068:1,2008-01-07T00:00:00Z,27.2970,-97.4049,0.0,7.0,122.0,8.1,'11111222,11111222,11111222' 
TCOON,ioos:station:TCOON:068:1,2008-01-07T01:00:00Z,27.2970,-97.4049,0.0,6.3,120.0,7.9,'11111222,11111222,11111222' 
TCOON,ioos:station:TCOON:068:1,2008-01-07T02:00:00Z,27.2970,-97.4049,0.0,5.9,123.0,7.4,'11111222,11111222,11111222' 
TCOON,ioos:station:TCOON:068:1,2008-01-07T03:00:00Z,27.2970,-97.4049,0.0,5.2,119.0,6.2,'11111222,11111222,11111222' 
TCOON,ioos:station:TCOON:068:1,2008-01-07T04:00:00Z,27.2970,-97.4049,0.0,6.9,121.0,8.4,'11111222,11111222,11111222' 
TCOON,ioos:station:TCOON:068:1,2008-01-07T06:00:00Z,27.2970,-97.4049,0.0,7.5,127.0,9.7,'11111222,11111222,11111222' 
TCOON,ioos:station:TCOON:068:1,2008-01-07T07:00:00Z,27.2970,-97.4049,0.0,6.8,137.0,8.5,'11111222,11111222,11111222' 
TCOON,ioos:station:TCOON:068:1,2008-01-07T08:00:00Z,27.2970,-97.4049,0.0,7.3,130.0,8.8,'11111222,11111222,11111222' 
TCOON,ioos:station:TCOON:068:1,2008-01-07T09:00:00Z,27.2970,-97.4049,0.0,7.4,131.0,9.1,'11111222,11111222,11111222' 
TCOON,ioos:station:TCOON:068:1,2008-01-07T10:00:00Z,27.2970,-97.4049,0.0,6.6,138.0,7.9,'11111222,11111222,11111222' 
TCOON,ioos:station:TCOON:068:1,2008-01-07T11:00:00Z,27.2970,-97.4049,0.0,6.4,138.0,7.6,'11111222,11111222,11111222' 
TCOON,ioos:station:TCOON:068:1,2008-01-07T12:00:00Z,27.2970,-97.4049,0.0,4.9,131.0,5.7,'11111222,11111222,11111222' 
TCOON,ioos:station:TCOON:068:1,2008-01-07T13:00:00Z,27.2970,-97.4049,0.0,4.6,109.0,5.8,'11111222,11111222,11111222' 
TCOON,ioos:station:TCOON:068:1,2008-01-07T14:00:00Z,27.2970,-97.4049,0.0,4.9,99.0,5.8,'11111222,11111222,11111222' 
TCOON,ioos:station:TCOON:068:1,2008-01-07T15:00:00Z,27.2970,-97.4049,0.0,6.4,98.0,8.1,'11111222,11111222,11111222' 
TCOON,ioos:station:TCOON:068:1,2008-01-07T16:00:00Z,27.2970,-97.4049,0.0,7.2,110.0,9.0,'11111222,11111222,11111222' 
TCOON,ioos:station:TCOON:068:1,2008-01-07T17:00:00Z,27.2970,-97.4049,0.0,7.2,118.0,9.2,'11111222,11111222,11111222' 
TCOON,ioos:station:TCOON:068:1,2008-01-07T18:00:00Z,27.2970,-97.4049,0.0,9.3,129.0,11.6,'11111222,11111222,11111222' 
TCOON,ioos:station:TCOON:068:1,2008-01-07T19:00:00Z,27.2970,-97.4049,0.0,10.4,129.0,13.1,'11111222,11111222,11111222' 
TCOON,ioos:station:TCOON:068:1,2008-01-07T20:00:00Z,27.2970,-97.4049,0.0,11.0,131.0,13.9,'11111222,11111222,11111222' 
TCOON,ioos:station:TCOON:068:1,2008-01-07T21:00:00Z,27.2970,-97.4049,0.0,11.8,132.0,15.2,'11111222,11111222,11111222' 
TCOON,ioos:station:TCOON:068:1,2008-01-07T22:00:00Z,27.2970,-97.4049,0.0,11.7,128.0,14.4,'11111222,11111222,11111222' 
TCOON,ioos:station:TCOON:068:1,2008-01-07T23:00:00Z,27.2970,-97.4049,0.0,11.4,129.0,16.2,'11111222,11111222,11111222' 
TCOON,ioos:station:TCOON:068:1,2008-01-08T00:00:00Z,27.2970,-97.4049,0.0,10.2,132.0,12.6,'11111222,11111222,11111222' 
TCOON,ioos:station:TCOON:068:1,2008-01-08T01:00:00Z,27.2970,-97.4049,0.0,8.3,136.0,11.4,'11111222,11111222,11111222' 
TCOON,ioos:station:TCOON:068:1,2008-01-08T02:00:00Z,27.2970,-97.4049,0.0,6.5,139.0,8.2,'11111222,11111222,11111222' 
TCOON,ioos:station:TCOON:068:1,2008-01-08T03:00:00Z,27.2970,-97.4049,0.0,8.3,125.0,10.8,'11111222,11111222,11111222' 
TCOON,ioos:station:TCOON:068:1,2008-01-08T04:00:00Z,27.2970,-97.4049,0.0,7.5,129.0,9.3,'11111222,11111222,11111222' 
TCOON,ioos:station:TCOON:068:1,2008-01-08T05:00:00Z,27.2970,-97.4049,0.0,4.3,143.0,5.6,'11111222,11111222,11111222' 
TCOON,ioos:station:TCOON:068:1,2008-01-08T06:00:00Z,27.2970,-97.4049,0.0,4.1,143.0,5.1,'11111222,11111222,11111222' 
TCOON,ioos:station:TCOON:068:1,2008-01-08T07:00:00Z,27.2970,-97.4049,0.0,6.1,128.0,7.4,'11111222,11111222,11111222' 
TCOON,ioos:station:TCOON:068:1,2008-01-08T08:00:00Z,27.2970,-97.4049,0.0,7.0,128.0,9.0,'11111222,11111222,11111222' 
TCOON,ioos:station:TCOON:068:1,2008-01-08T09:00:00Z,27.2970,-97.4049,0.0,7.4,127.0,9.6,'11111222,11111222,11111222' 
TCOON,ioos:station:TCOON:068:1,2008-01-08T10:00:00Z,27.2970,-97.4049,0.0,7.3,134.0,9.5,'11111222,11111222,11111222' 
TCOON,ioos:station:TCOON:068:1,2008-01-08T11:00:00Z,27.2970,-97.4049,0.0,4.7,124.0,6.1,'11111222,11111222,11111222' 
TCOON,ioos:station:TCOON:068:1,2008-01-08T12:00:00Z,27.2970,-97.4049,0.0,6.0,122.0,7.3,'11111222,11111222,11111222' 
TCOON,ioos:station:TCOON:068:1,2008-01-08T13:00:00Z,27.2970,-97.4049,0.0,4.9,121.0,5.9,'11111222,11111222,11111222' 
TCOON,ioos:station:TCOON:068:1,2008-01-08T14:00:00Z,27.2970,-97.4049,0.0,4.9,120.0,6.0,'11111222,11111222,11111222' 
TCOON,ioos:station:TCOON:068:1,2008-01-08T15:00:00Z,27.2970,-97.4049,0.0,4.1,136.0,5.1,'11111222,11111222,11111222' 
TCOON,ioos:station:TCOON:068:1,2008-01-08T16:00:00Z,27.2970,-97.4049,0.0,2.6,137.0,3.5,'11111222,11111222,11111222' 
TCOON,ioos:station:TCOON:068:1,2008-01-08T17:00:00Z,27.2970,-97.4049,0.0,2.2,117.0,2.7,'11111222,11111222,11111222' 
TCOON,ioos:station:TCOON:068:1,2008-01-08T18:00:00Z,27.2970,-97.4049,0.0,2.7,93.0,3.3,'11111222,11111222,11111222' 
TCOON,ioos:station:TCOON:068:1,2008-01-08T19:00:00Z,27.2970,-97.4049,0.0,3.0,65.0,3.3,'11111222,11111222,11111222' 
TCOON,ioos:station:TCOON:068:1,2008-01-08T20:00:00Z,27.2970,-97.4049,0.0,3.1,86.0,3.6,'11111222,11111222,11111222' 
TCOON,ioos:station:TCOON:068:1,2008-01-08T21:00:00Z,27.2970,-97.4049,0.0,4.0,81.0,4.4,'11111222,11111222,11111222' 
TCOON,ioos:station:TCOON:068:1,2008-01-08T22:00:00Z,27.2970,-97.4049,0.0,3.9,76.0,4.4,'11111222,11111222,11111222' 
TCOON,ioos:station:TCOON:068:1,2008-01-08T23:00:00Z,27.2970,-97.4049,0.0,3.5,85.0,3.8,'11111222,11111222,11111222' 
TCOON,ioos:station:TCOON:068:1,2008-01-09T00:00:00Z,27.2970,-97.4049,0.0,2.9,37.0,3.2,'11111222,11111222,11111222' 
TCOON,ioos:station:TCOON:068:1,2008-01-09T01:00:00Z,27.2970,-97.4049,0.0,9.6,24.0,12.2,'11111222,11111222,11111222' 
TCOON,ioos:station:TCOON:068:1,2008-01-09T02:00:00Z,27.2970,-97.4049,0.0,9.4,16.0,12.1,'11111222,11111222,11111222' 
TCOON,ioos:station:TCOON:068:1,2008-01-09T03:00:00Z,27.2970,-97.4049,0.0,7.7,21.0,9.6,'11111222,11111222,11111222' 
TCOON,ioos:station:TCOON:068:1,2008-01-09T04:00:00Z,27.2970,-97.4049,0.0,8.0,11.0,66.7,'11111222,11111222,11111222' 
TCOON,ioos:station:TCOON:068:1,2008-01-09T05:00:00Z,27.2970,-97.4049,0.0,8.9,15.0,10.7,'11111222,11111222,11111222' 
TCOON,ioos:station:TCOON:068:1,2008-01-09T06:00:00Z,27.2970,-97.4049,0.0,9.8,11.0,13.1,'11111222,11111222,11111222' 
TCOON,ioos:station:TCOON:068:1,2008-01-09T07:00:00Z,27.2970,-97.4049,0.0,9.6,360.0,12.3,'11111222,11144222,11111222' 
TCOON,ioos:station:TCOON:068:1,2008-01-09T08:00:00Z,27.2970,-97.4049,0.0,9.2,15.0,11.3,'11111222,11111222,11111222' 
TCOON,ioos:station:TCOON:068:1,2008-01-09T09:00:00Z,27.2970,-97.4049,0.0,7.3,345.0,8.9,'11111222,11111222,11111222' 
TCOON,ioos:station:TCOON:068:1,2008-01-09T10:00:00Z,27.2970,-97.4049,0.0,6.1,333.0,7.1,'11111222,11111222,11111222' 
TCOON,ioos:station:TCOON:068:1,2008-01-09T11:00:00Z,27.2970,-97.4049,0.0,7.8,343.0,9.4,'11111222,11111222,11111222' 
TCOON,ioos:station:TCOON:068:1,2008-01-09T12:00:00Z,27.2970,-97.4049,0.0,8.2,19.0,10.9,'11111222,11111222,11111222' 
TCOON,ioos:station:TCOON:068:1,2008-01-09T13:00:00Z,27.2970,-97.4049,0.0,7.8,17.0,9.3,'11111222,11111222,11111222' 